TimeEDT,TemperatureF,Dew PointF,Humidity,Sea Level PressureIn,VisibilityMPH,Wind Direction,Wind SpeedMPH,Gust SpeedMPH,PrecipitationIn,Events,Conditions,WindDirDegrees,DateUTC
12:54 AM,55.9,46.0,69,30.10,-9999.0,NE,8.1,-,N/A,,Unknown,40,2013-10-11 04:54:00
1:54 AM,55.9,46.0,69,30.09,-9999.0,Variable,6.9,-,N/A,,Unknown,0,2013-10-11 05:54:00
2:54 AM,55.0,45.0,69,30.07,-9999.0,NE,9.2,17.3,N/A,,Unknown,40,2013-10-11 06:54:00
3:54 AM,55.0,44.1,67,30.06,-9999.0,Variable,6.9,-,N/A,,Unknown,0,2013-10-11 07:54:00
4:54 AM,55.9,44.1,64,30.06,-9999.0,NE,8.1,17.3,N/A,,Unknown,40,2013-10-11 08:54:00
5:54 AM,55.9,45.0,67,30.06,-9999.0,Variable,6.9,-,N/A,,Unknown,0,2013-10-11 09:54:00
6:54 AM,55.9,45.0,67,30.07,-9999.0,Variable,6.9,-,N/A,,Unknown,0,2013-10-11 10:54:00
7:54 AM,55.9,45.0,67,30.08,-9999.0,NE,5.8,-,N/A,,Unknown,40,2013-10-11 11:54:00
8:54 AM,57.0,46.9,69,30.09,-9999.0,NE,6.9,-,N/A,,Unknown,40,2013-10-11 12:54:00
9:54 AM,57.9,48.0,70,30.09,-9999.0,NE,9.2,-,N/A,,Unknown,40,2013-10-11 13:54:00
10:54 AM,60.1,50.0,69,30.09,-9999.0,NE,6.9,-,N/A,,Unknown,40,2013-10-11 14:54:00
11:54 AM,62.1,52.0,70,30.09,-9999.0,NE,8.1,-,N/A,,Unknown,40,2013-10-11 15:54:00
12:54 PM,64.0,54.0,70,30.06,-9999.0,NE,9.2,17.3,N/A,,Unknown,40,2013-10-11 16:54:00
1:54 PM,64.9,55.0,70,30.04,-9999.0,Variable,5.8,-,N/A,,Unknown,0,2013-10-11 17:54:00
2:54 PM,64.9,55.0,70,30.05,-9999.0,Variable,5.8,-,N/A,,Unknown,0,2013-10-11 18:54:00
3:54 PM,64.9,55.9,73,30.04,-9999.0,NNE,6.9,-,N/A,,Unknown,30,2013-10-11 19:54:00
4:54 PM,64.9,55.9,73,30.05,-9999.0,NE,8.1,-,N/A,,Unknown,40,2013-10-11 20:54:00
5:54 PM,64.9,55.0,70,30.06,-9999.0,Calm,Calm,-,N/A,,Unknown,0,2013-10-11 21:54:00
6:54 PM,63.0,57.0,81,30.08,-9999.0,Calm,Calm,-,N/A,,Unknown,0,2013-10-11 22:54:00
7:54 PM,64.0,57.0,78,30.09,-9999.0,Calm,Calm,-,N/A,,Unknown,0,2013-10-11 23:54:00
8:54 PM,64.0,55.9,75,30.08,-9999.0,ENE,3.5,-,N/A,,Unknown,60,2013-10-12 00:54:00
9:54 PM,63.0,55.9,78,30.11,-9999.0,Calm,Calm,-,N/A,,Unknown,0,2013-10-12 01:54:00
10:54 PM,62.1,54.0,75,30.12,-9999.0,Calm,Calm,-,N/A,,Unknown,0,2013-10-12 02:54:00
11:54 PM,61.0,52.0,72,30.10,-9999.0,Variable,3.5,-,N/A,,Unknown,0,2013-10-12 03:54:00